2018-004AB (43136 NORAD) Tracking and Keplerian Element Data

This shows tracking and keplerian element data for the satellite.

Feedback or suggestion? Click here.




ElementValue
Catalog43136
Name2018-004AB
Epoch Orbit427
Epoch Day40.40360842
Epoch Year2018
RAAN102.6575
Inclination97.5516
Eccentricity0.0009889
Argument of Perigee178.5122
Mean Anonmoly181.6145
Mean Motion15.22363928
Decay Rate9.03E-06
L11 43136U 18004AB 18040.40360842 .00000903 00000-0 42243-4 0 9991
L22 43136 97.5516 102.6575 0009889 178.5122 181.6145 15.22363928 4278

Live tracking and technical data element details for 2018-004AB (NORAD 43136). 2018-004AB can be tracked NOW for your location showing map with azimuth and elevation plus other details from your city location.

Track the satellite on the map from your city or location and see movement details for azimuth, elevation, latitude, longitude, range, height, and movement on the map or in text.







IsCatalogInMostPopularTable: catalog: 43136, numindb: 154
Update: records affected: 1



GetName: 43136 2018-004AB

Hit Count: updated at: Fri, 16 Nov 2018 09:13:08 GMT